NIMBUS 2 DEB, 28613

Orbit data source: Space-Track

NIMBUS 2 DEB, 28613 is space debris in SSO originally from a launch on Sun, 15 May 1966 UTC launched from the Air Force Western Test Range (AFWTR). Debris objects in space refer to the collection of defunct objects orbiting the Earth. Examples of debris include non-operational satellites, rocket bodies, and fragments generated from explosions, collisions, or faulty payload assembly.

Loading next visibility...
Identifier
28613, 1966-040AC
Orbit
SSO
Country
Flag of USUS
Related business
Manufacturer
Unknown
Mission
Spacecraft
Bus & Motor
Unknown
Mass
Unknown
Launch date (UTC)
1966-05-15 (59 years ago)
Launch vehicle
Unknown
Launch site
Air Force Western Test Range (AFWTR)
Object type
Payload
Rocket body
Debris
Shape & HBR
Unknown shape, 0.1 m
Radar Cross Section
Small (<0.1 m²)

Expand to show TLE details & history
Last TLE update: 4 days ago

TLE from 4 days ago
0 NIMBUS 2 DEB
1 28613U 66040AC  25307.19875178  .00003715  00000-0  41681-2 0  9997
2 28613 100.3766  85.9712 0038554  50.3096  74.0215 13.71355877612370
Epoch: 2025-11-03T04:46Z
TLE epoch observation values (Epoch: 2025-11-03T04:46:12.153Z)
Latitude
54.01497°
Longitude
166.24557°
Altitude
995.753 km
Speed
7.363 km/s
True Right ascension
18h 41m 59s
True Declination
53° 51' 24"
Sunlit
Object was in daylight at epoch
Visualization orbit readout
Latitude
Unknown
Longitude
Unknown
Altitude
Unknown
Speed
Unknown
Apparent Right ascension
Unknown
Apparent Declination
Unknown
Sunlit
N/A
Visualization observer readout
Local Sidereal Time
02:33:42
Azimuth
Unknown
Elevation
Unknown
Doppler factor
Unknown
Orbital elements
Apogee altitude
1,020.431 km
Perigee altitude
963.602 km
Semi-major axis
7,370.153 km
Eccentricity
0.00386
Inclination
100.3766°
RAAN
85.9712°
Arg. of periapsis
50.3096°
True anomaly
74.44679°
Mean anomaly
74.0215°
Eccentric anomaly
74.23409°
Mean motion
3.43027 °/min
Orbital period
104.95 mins
BSTAR
0.0041681
Loading maneuver chart data...
Computing Atmospheric mass density...
Loading historical data...
Loading historical data...
Loading historical data...
Loading historical data...
Loading historical data...
Loading historical data...
Loading historical data...

Documentation

Showing up to 5 results
|